• Join FlightAware (Why Join?)
  • Login
  • US Flag 
03:01PM EST


 

Airport Tracker/Info


-or-


 

Live Flight TrackerFlight Track Log ✈ SWA864 ✈ 06-Jul-2013 ✈ KLAS - KBUR

Flight Track Log - Related Links

Times and Time Zones

All times are in EDT time to prevent confusion due to time zone crossing. See the SWA864 flight status page for this flight to view local times or setup timezone preferences in your user account.

Time Position Orientation Groundspeed Altitude Reporting Facility
EDT Latitude Longitude Course Direction KTS MPH feet Rate Location/Type
06:08PM 36.0756 -115.1658 265° West 176 203 2,900  Level Los Angeles Center
06:09PM 36.0706 -115.2419 265° West 221 254 4,900 1,828 Climbing Los Angeles Center
06:10PM 36.0083 -115.2836 208° Southwest 272 313 6,800 2,032 Climbing Los Angeles Center
06:11PM 35.9258 -115.3072 193° South 275 316 9,100 2,208 Climbing Los Angeles Center
06:12PM 35.8411 -115.3122 183° South 289 333 11,400 2,732 Climbing Los Angeles Center
06:13PM 35.7417 -115.2992 174° South 337 388 14,700 3,171 Climbing Los Angeles Center
06:14PM 35.6558 -115.3406 201° Southwest 341 392 17,900 3,097 Climbing Los Angeles Center
06:15PM 35.5864 -115.4322 227° Southwest 358 412 21,100 2,177 Climbing Los Angeles Center
06:16PM 35.5194 -115.5233 228° Southwest 360 414 22,400 976 Climbing Los Angeles Center
06:17PM 35.4503 -115.6128 227° Southwest 355 409 23,100 780 Climbing Los Angeles Center
06:18PM 35.3833 -115.7003 227° Southwest 353 406 24,000 435 Climbing Los Angeles Center
06:19PM 35.3172 -115.7883 227° Southwest 354 407 24,000  Level Los Angeles Center
06:20PM 35.2367 -115.8922 227° Southwest 352 405 24,000  Level Los Angeles Center
06:21PM 35.1692 -115.9839 228° Southwest 358 412 24,000  Level Los Angeles Center
06:22PM 35.0892 -116.0864 226° Southwest 401 461 24,000  Level Los Angeles Center
06:23PM 35.0089 -116.1906 227° Southwest 414 476 24,000  Level Los Angeles Center
06:24PM 34.9272 -116.2950 226° Southwest 421 484 24,000 -339 Level Los Angeles Center
06:25PM 34.8458 -116.4000 227° Southwest 425 489 23,300 -823 Descending Los Angeles Center
06:26PM 34.7919 -116.5239 242° Southwest 429 494 22,300 -1,065 Descending Los Angeles Center
06:27PM 34.7778 -116.6633 263° West 416 479 21,100 -1,268 Descending Los Angeles Center
06:28PM 34.7631 -116.8122 263° West 371 427 19,700 -1,171 Descending Los Angeles Center
06:29PM 34.7511 -116.9306 263° West 355 409 18,700 -1,065 Descending Los Angeles Center
06:30PM 34.7389 -117.0489 263° West 353 406 17,500 -1,016 Descending Los Angeles Center
06:31PM 34.7267 -117.1661 263° West 351 404 16,600 -878 Descending Los Angeles Center
06:32PM 34.7147 -117.2822 263° West 345 397 15,700 -976 Descending Los Angeles Center
06:33PM 34.7031 -117.3956 263° West 339 390 14,600 -1,452 Descending Los Angeles Center
06:34PM 34.6900 -117.5097 262° West 340 391 12,700 -1,258 Descending Los Angeles Center
06:35PM 34.6728 -117.6217 259° West 337 388 12,000 -341 Descending Los Angeles Center
06:36PM 34.6539 -117.7517 260° West 327 376 12,000  Level Los Angeles Center
06:37PM 34.6394 -117.8633 261° West 332 382 12,000 -97 Level Los Angeles Center
06:39PM 34.6233 -117.9717 260° West 326 375 11,800 -634 Descending Los Angeles Center
06:40PM 34.6075 -118.0789 260° West 323 372 10,700 -1,024 Descending Los Angeles Center
06:41PM 34.5917 -118.1906 260° West 309 356 9,700 -1,016 Descending Los Angeles Center
06:42PM 34.5778 -118.2808 259° West 280 322 8,600 -823 Descending Los Angeles Center
06:43PM 34.5642 -118.3692 259° West 269 310 8,000 -585 Descending Los Angeles Center
06:44PM 34.5256 -118.4414 237° Southwest 267 307 7,400 -634 Descending Los Angeles Center
06:45PM 34.4728 -118.4992 222° Southwest 257 296 6,700 -919 Descending Los Angeles Center
06:46PM 34.4069 -118.5314 202° Southwest 261 300 5,500 -927 Descending Los Angeles Center
06:47PM 34.3261 -118.5511 191° South 245 282 4,800 -976 Descending Los Angeles Center
06:48PM 34.2592 -118.5556 183° South 242 278 3,500 -871 Descending Los Angeles Center
06:49PM 34.2119 -118.5103 142° Southeast 215 247 3,000 -585 Descending Los Angeles Center
06:50PM 34.1992 -118.4617 108° East 165 190 2,300 -732 Descending Los Angeles Center
06:51PM 34.1994 -118.4156 90° East 144 166 1,500 -732 Descending Los Angeles Center
06:52PM 34.1983 -118.3706 92° East 137 158 800 -689 Descending Los Angeles Center
06:54PM 34.2000 -118.3500 90° East  Level FlightAware Approximate